カタログに戻る

STARLINK-2609

運用中通信VLEO
NORAD 48373·PAYLOAD·🇺🇸 United States

打ち上げ May 4, 2021 から Cape Canaveral Space Force Station

Loading…

次のパス (今後24時間)

TLE

最新Source: CelesTrak SupGP

元期: Sep 14, 2026, 14:16 UTC

1 48373C 21038W   26257.59493056  .00024826  00000+0  79866-3 0  2579
2 48373  53.1606 186.3588 0001313  87.9035 273.8465 15.31676486    10

AllMySatでSTARLINK-2609をリアルタイム追跡

Download on the App Store